Clemson, SC

3:30 AM EDT on July 27, 2017 (GMT -0400)
Oconee County Regional

Weather History for KCEU - June, 2013

Change the Weather History Date:

Saturday, June 22, 2013

  Actual Average Record
Temperature  
Mean Temperature 76 °F -  
Max Temperature 87 °F 87 °F 100 °F (1933)
Min Temperature 68 °F 64 °F 57 °F (1940)
Cooling Degree Days 11    
Growing Degree Days 26 (Base 50)    
Moisture  
Dew Point 60 °F    
Average Humidity 59    
Maximum Humidity 81    
Minimum Humidity 36    
Precipitation  
Precipitation 0.00 in - - ()
Sea Level Pressure  
Sea Level Pressure 30.18 in    
Wind  
Wind Speed 2 mph (NNE)    
Max Wind Speed 8 mph    
Max Gust Speed -    
Visibility 10 miles    
Events      
Averages and records for this station are not official NWS values.
T = Trace of Precipitation, MM = Missing Value Source: NWS Daily Summary

Daily Weather History Graph

Daily Weather History Graph

Search for Another Location

Airport or City:

Trip Planner

Search our weather history database for the weather conditions in past years. The results will help you decide how hot, cold, wet, or windy it might be!

Date:

Astronomy

Jun. 22, 2013 Rise Set
Actual Time 6:19 AM EDT 8:48 PM EDT
Civil Twilight 5:49 AM EDT 9:17 PM EDT
Nautical Twilight 5:13 AM EDT 9:54 PM EDT
Astronomical Twilight 4:32 AM EDT 10:34 PM EDT
Moon 8:04 PM EDT (6/22) 5:28 AM EDT (6/22)
Length of Visible Light 15h 28m
Length of Day
14h 28m
Waxing Gibbous, 99% of the Moon is Illuminated
Jun 22
Waxing Gibbous
Jun 23
Full
Jun 30
Last Quarter
Jul 8
New
Jul 15
First Quarter

Hourly Weather History & Observations

Time (EDT) Temp. Heat Index Dew Point Humidity Pressure Visibility Wind Dir Wind Speed Gust Speed Precip Events Conditions
12:54 AM 72.0 °F - 62.1 °F 71% 30.21 in 10.0 mi Calm Calm - N/A   Clear
1:54 AM 70.0 °F - 62.1 °F 76% 30.19 in 10.0 mi Calm Calm - N/A   Clear
2:54 AM 70.0 °F - 62.1 °F 76% 30.19 in 10.0 mi Calm Calm - N/A   Clear
3:54 AM 68.0 °F - 62.1 °F 81% 30.18 in 10.0 mi Calm Calm - N/A   Partly Cloudy
4:54 AM 68.0 °F - 61.0 °F 78% 30.19 in 10.0 mi Calm Calm - N/A   Mostly Cloudy
5:54 AM 68.0 °F - 61.0 °F 78% 30.20 in 10.0 mi North 4.6 mph - N/A   Overcast
6:54 AM 69.1 °F - 60.1 °F 73% 30.21 in 10.0 mi North 3.5 mph - N/A   Scattered Clouds
7:54 AM 72.0 °F - 60.1 °F 66% 30.21 in 10.0 mi East 5.8 mph - N/A   Clear
8:54 AM 75.0 °F - 60.1 °F 60% 30.23 in 10.0 mi NNE 5.8 mph - N/A   Clear
9:54 AM 77.0 °F - 61.0 °F 58% 30.24 in 10.0 mi NE 6.9 mph - N/A   Clear
10:54 AM 80.1 °F 81.1 °F 61.0 °F 52% 30.23 in 10.0 mi NNE 8.1 mph - N/A   Clear
11:54 AM 81.0 °F 81.6 °F 60.1 °F 49% 30.24 in 10.0 mi East 5.8 mph - N/A   Clear
12:54 PM 82.9 °F 82.8 °F 59.0 °F 44% 30.22 in 10.0 mi Calm Calm - N/A   Clear
1:54 PM 84.0 °F 83.0 °F 55.9 °F 38% 30.21 in 10.0 mi Variable 3.5 mph - N/A   Clear
2:54 PM 84.9 °F 83.6 °F 55.0 °F 36% 30.18 in 10.0 mi ENE 5.8 mph - N/A   Clear
3:54 PM 84.9 °F 83.7 °F 55.9 °F 37% 30.16 in 10.0 mi Calm Calm - N/A   Clear
4:54 PM 84.9 °F 83.7 °F 55.9 °F 37% 30.13 in 10.0 mi Variable 3.5 mph - N/A   Clear
5:54 PM 84.9 °F 84.2 °F 57.9 °F 40% 30.12 in 10.0 mi Calm Calm - N/A   Clear
6:54 PM 84.0 °F 83.8 °F 59.0 °F 43% 30.12 in 10.0 mi Calm Calm - N/A   Clear
7:54 PM 82.0 °F 83.0 °F 62.1 °F 51% 30.12 in 10.0 mi Calm Calm - N/A   Clear
8:54 PM 79.0 °F - 61.0 °F 54% 30.12 in 10.0 mi Calm Calm - N/A   Clear
9:54 PM 75.9 °F - 63.0 °F 64% 30.14 in 10.0 mi Calm Calm - N/A   Clear
10:54 PM 75.0 °F - 63.0 °F 66% 30.16 in 10.0 mi Calm Calm - N/A   Partly Cloudy
11:54 PM 73.0 °F - 64.9 °F 76% 30.17 in 10.0 mi NW 3.5 mph - N/A   Clear